Home   Weather   Guelph   Past weeks

Flag for Canada Past Weather in Guelph, Ontario, Canada — Yesterday and Last 2 Weeks

Now
46 °F

Sunny.


Feels Like: 46 °F
Forecast: 33 / 64 °F
Wind: No wind

Location: Waterloo Well

Current Time: Apr 23, 2017 at 10:05:03 am

Latest Report: Apr 23, 2017 at 9:00 am


Visibility: 9 mi

Pressure: 30.13 "Hg

Humidity: 71%

Dew Point: 37 °F

Location of GuelphLocation

Past Weather in Guelph — Graph

°F

Guelph Temperature Yesterday

Maximum temperature yesterday: 57 °F (at 3:00 pm)
Minimum temperature yesterday: 37 °F (at 7:00 am)
Average temperature yesterday: 46 °F

High & Low Weather Summary for the Past Weeks

 TemperatureHumidityPressure
High72 °F (Apr 10, 2:00 pm)100% (Apr 20, 3:53 pm)30.54 "Hg (Apr 20, 3:53 pm)
Low28 °F (Apr 18, 6:00 am)25% (Apr 14, 4:00 pm)29.72 "Hg (Apr 16, 11:00 am)
Average49 °F72%30.07 "Hg
* Reported Apr 8 8:00 am — Apr 23 8:00 am, Guelph, Weather by CustomWeather, © 2017

Note: Actual official high and low records may vary slightly from our data, if they occured in-between our weather recording intervals... More about our weather records

Advertising

Guelph Weather History for the Previous 24 Hours

Scroll right to see more
 ConditionsComfort  
Time TempWeatherWind HumidityBarometerVisibility
8:00 am
Sun, Apr 23
37 °FSunny.2 mph87%30.14 "Hg9 mi
7:00 am32 °FSunny.2 mph93%30.13 "Hg9 mi
6:36 am32 °FSunny.7 mph93%30.12 "Hg7 mi
6:22 am32 °FIce fog.2 mph93%30.11 "Hg1 mi
6:00 am32 °FClear.3 mph100%30.11 "Hg9 mi
5:00 am30 °FClear.3 mph100%30.10 "Hg9 mi
4:58 am30 °FIce fog.3 mph100%30.09 "Hg6 mi
4:00 am34 °FClear.No wind93%30.10 "Hg9 mi
3:00 am36 °FClear.2 mph93%30.11 "Hg9 mi
2:00 am37 °FClear.3 mph81%30.13 "Hg9 mi
1:00 am37 °FClear.6 mph81%30.14 "Hg9 mi
12:00 am39 °FClear.5 mph87%30.13 "Hg9 mi
11:00 pm
Sat, Apr 22
41 °FClear.2 mph81%30.13 "Hg9 mi
10:00 pm46 °FClear.10 mph66%30.11 "Hg9 mi
9:00 pm48 °FClear.9 mph58%30.10 "Hg9 mi
8:00 pm52 °FSunny.5 mph41%30.08 "Hg9 mi
7:00 pm55 °FSunny.8 mph33%30.07 "Hg9 mi
6:00 pm57 °FScattered clouds.9 mph36%30.08 "Hg9 mi
5:00 pm55 °FSunny.10 mph36%30.08 "Hg9 mi
4:00 pm57 °FPassing clouds.10 mph36%30.08 "Hg9 mi
3:00 pm57 °FPartly sunny.9 mph41%30.09 "Hg9 mi
2:00 pm54 °FSunny.17 mph41%30.09 "Hg9 mi
1:00 pm52 °FSunny.14 mph54%30.10 "Hg9 mi
12:00 pm50 °FSunny.12 mph54%30.10 "Hg9 mi
11:00 am46 °FSunny.13 mph62%30.11 "Hg9 mi
10:00 am45 °FSunny.15 mph66%30.10 "Hg9 mi
Weather by CustomWeather, © 2017

See weather overviewHow to use our weather pages